User: anonymous   Login
Location: Caltech
(34.1382°N, 118.1253°W)
Time: 09:31:58
(UTC-08:00)
Language:

GPS 2-04 Rocket1 - Orbit

View from above orbital plane
View from above orbital plane
View from above satellite
View from above satellite

Ground track
Ground track

The orbit data is extracted from the following two-line orbital elements,

1 20303U 89085B   15064.78209976  .00007093  00000-0  30557-3 0  9994
2 20303 035.6317 184.6854 0127559 032.4505 125.7463 15.14875145373506
Epoch (UTC): 05 March 2015 18:46:13
Eccentricity: 0.0127559
inclination: 35.6317°
perigee height: 433 km
apogee height: 609 km
right ascension of ascending node: 184.6854°
argument of perigee: 32.4505°
revolutions per day: 15.14875145
mean anomaly at epoch: 125.7463°
orbit number at epoch: 37350

The dashed part of the orbit path shows where the satellite is in the earth's shadow,  

DLR